Time,TemperatureF,DewpointF,PressureIn,WindDirection,WindDirectionDegrees,WindSpeedMPH,WindSpeedGustMPH,Humidity,HourlyPrecipIn,Conditions,Clouds,dailyrainin,SoftwareType,DateUTC
2013-08-11 00:01:00,60.1,57.5,30.08,SE,128,0.0,0.0,91,0.00,,,0.00,Wunderground v.1.15,2013-08-11 04:01:00,
2013-08-11 00:06:00,59.9,57.3,30.08,SE,128,0.0,0.0,91,0.00,,,0.00,Wunderground v.1.15,2013-08-11 04:06:00,
2013-08-11 00:11:00,59.8,57.2,30.08,SE,128,0.0,0.0,91,0.00,,,0.00,Wunderground v.1.15,2013-08-11 04:11:00,
2013-08-11 00:16:00,59.8,57.2,30.08,SE,128,0.0,0.0,91,0.00,,,0.00,Wunderground v.1.15,2013-08-11 04:16:00,
2013-08-11 00:21:00,59.7,57.1,30.08,SE,128,0.0,0.0,91,0.00,,,0.00,Wunderground v.1.15,2013-08-11 04:21:00,
2013-08-11 00:31:00,59.3,56.7,30.08,SE,128,0.0,0.0,91,0.00,,,0.00,Wunderground v.1.15,2013-08-11 04:31:00,
2013-08-11 00:41:00,59.1,56.5,30.08,SE,128,0.0,0.0,91,0.00,,,0.00,Wunderground v.1.15,2013-08-11 04:41:00,
2013-08-11 00:51:00,58.9,56.3,30.08,SE,128,0.0,0.0,91,0.00,,,0.00,Wunderground v.1.15,2013-08-11 04:51:00,
2013-08-11 01:00:00,58.9,56.3,30.07,SE,128,0.0,0.0,91,0.00,,,0.00,Wunderground v.1.15,2013-08-11 05:00:00,
2013-08-11 01:10:00,59.0,56.7,30.08,SE,126,0.0,0.0,92,0.00,,,0.00,Wunderground v.1.15,2013-08-11 05:10:00,
2013-08-11 01:15:00,59.1,56.8,30.08,SE,126,1.0,1.0,92,0.00,,,0.00,Wunderground v.1.15,2013-08-11 05:15:00,
2013-08-11 01:25:00,58.9,56.6,30.08,East,86,1.0,1.0,92,0.00,,,0.00,Wunderground v.1.15,2013-08-11 05:25:00,
2013-08-11 01:35:00,58.9,56.6,30.08,East,86,0.0,0.0,92,0.00,,,0.00,Wunderground v.1.15,2013-08-11 05:35:00,
2013-08-11 01:40:00,59.2,56.9,30.08,East,86,0.0,0.0,92,0.00,,,0.00,Wunderground v.1.15,2013-08-11 05:40:00,
2013-08-11 01:50:00,59.3,57.0,30.08,East,88,1.0,1.0,92,0.00,,,0.00,Wunderground v.1.15,2013-08-11 05:50:00,
2013-08-11 02:05:00,58.8,56.5,30.08,East,88,1.0,1.0,92,0.00,,,0.00,Wunderground v.1.15,2013-08-11 06:05:00,
2013-08-11 02:15:00,58.6,56.3,30.08,ESE,111,0.0,1.0,92,0.00,,,0.00,Wunderground v.1.15,2013-08-11 06:15:00,
2013-08-11 02:25:00,57.8,55.2,30.08,ESE,110,0.0,1.0,91,0.00,,,0.00,Wunderground v.1.15,2013-08-11 06:25:00,
2013-08-11 02:30:00,57.6,55.3,30.08,ESE,110,0.0,0.0,92,0.00,,,0.00,Wunderground v.1.15,2013-08-11 06:30:00,
2013-08-11 02:40:00,57.4,55.1,30.08,ESE,110,0.0,0.0,92,0.00,,,0.00,Wunderground v.1.15,2013-08-11 06:40:00,
2013-08-11 02:50:00,58.2,56.2,30.08,ESE,110,0.0,2.0,93,0.00,,,0.00,Wunderground v.1.15,2013-08-11 06:50:00,
2013-08-11 03:05:00,58.3,56.0,30.08,ESE,111,0.0,0.0,92,0.00,,,0.00,Wunderground v.1.15,2013-08-11 07:05:00,
2013-08-11 03:20:00,57.4,55.1,30.08,ESE,111,0.0,0.0,92,0.00,,,0.00,Wunderground v.1.15,2013-08-11 07:20:00,
2013-08-11 03:30:00,56.6,54.3,30.08,ESE,111,0.0,0.0,92,0.00,,,0.00,Wunderground v.1.15,2013-08-11 07:30:00,
2013-08-11 03:40:00,56.4,54.1,30.08,ESE,111,0.0,0.0,92,0.00,,,0.00,Wunderground v.1.15,2013-08-11 07:40:00,
2013-08-11 03:45:00,55.9,53.6,30.08,ESE,110,0.0,0.0,92,0.00,,,0.00,Wunderground v.1.15,2013-08-11 07:45:00,
2013-08-11 03:55:00,55.7,53.4,30.08,ESE,110,0.0,0.0,92,0.00,,,0.00,Wunderground v.1.15,2013-08-11 07:55:00,
2013-08-11 04:00:00,56.5,54.5,30.08,ESE,110,0.0,0.0,93,0.00,,,0.00,Wunderground v.1.15,2013-08-11 08:00:00,
2013-08-11 04:10:00,56.8,54.8,30.08,ESE,110,0.0,0.0,93,0.00,,,0.00,Wunderground v.1.15,2013-08-11 08:10:00,
2013-08-11 04:20:00,56.2,53.9,30.08,ESE,110,0.0,0.0,92,0.00,,,0.00,Wunderground v.1.15,2013-08-11 08:20:00,
2013-08-11 04:25:00,55.9,53.6,30.08,ESE,110,0.0,0.0,92,0.00,,,0.00,Wunderground v.1.15,2013-08-11 08:25:00,
2013-08-11 04:30:00,55.8,53.5,30.08,ESE,110,0.0,0.0,92,0.00,,,0.00,Wunderground v.1.15,2013-08-11 08:30:00,
2013-08-11 04:35:00,55.7,53.4,30.08,ESE,110,0.0,0.0,92,0.00,,,0.00,Wunderground v.1.15,2013-08-11 08:35:00,
2013-08-11 04:45:00,55.5,53.2,30.08,ESE,110,0.0,0.0,92,0.00,,,0.00,Wunderground v.1.15,2013-08-11 08:45:00,
2013-08-11 04:55:00,55.3,53.0,30.07,ESE,110,0.0,0.0,92,0.00,,,0.00,Wunderground v.1.15,2013-08-11 08:55:00,
2013-08-11 05:00:00,55.1,52.8,30.08,ESE,110,0.0,0.0,92,0.00,,,0.00,Wunderground v.1.15,2013-08-11 09:00:00,
2013-08-11 05:05:00,55.0,52.7,30.08,ESE,110,0.0,1.0,92,0.00,,,0.00,Wunderground v.1.15,2013-08-11 09:05:00,
2013-08-11 05:15:00,55.0,53.0,30.08,ESE,110,0.0,0.0,93,0.00,,,0.00,Wunderground v.1.15,2013-08-11 09:15:00,
2013-08-11 05:25:00,54.7,52.4,30.08,ESE,110,0.0,0.0,92,0.00,,,0.00,Wunderground v.1.15,2013-08-11 09:25:00,
2013-08-11 05:30:00,54.6,52.3,30.08,ESE,110,0.0,0.0,92,0.00,,,0.00,Wunderground v.1.15,2013-08-11 09:30:00,
2013-08-11 05:35:00,54.6,52.6,30.08,ESE,110,0.0,0.0,93,0.00,,,0.00,Wunderground v.1.15,2013-08-11 09:35:00,
2013-08-11 05:50:00,54.8,52.8,30.08,ESE,110,0.0,0.0,93,0.00,,,0.00,Wunderground v.1.15,2013-08-11 09:50:00,
2013-08-11 06:00:00,55.3,53.3,30.08,ESE,110,0.0,0.0,93,0.00,,,0.00,Wunderground v.1.15,2013-08-11 10:00:00,
2013-08-11 06:15:00,55.5,53.5,30.08,ESE,110,0.0,0.0,93,0.00,,,0.00,Wunderground v.1.15,2013-08-11 10:15:00,
2013-08-11 06:25:00,55.1,53.1,30.09,ESE,110,0.0,0.0,93,0.00,,,0.00,Wunderground v.1.15,2013-08-11 10:25:00,
2013-08-11 06:35:00,54.6,52.3,30.09,ESE,110,0.0,0.0,92,0.00,,,0.00,Wunderground v.1.15,2013-08-11 10:35:00,
2013-08-11 06:45:00,54.7,52.7,30.09,ESE,110,0.0,0.0,93,0.00,,,0.00,Wunderground v.1.15,2013-08-11 10:45:00,
2013-08-11 06:51:00,55.0,53.0,30.09,ESE,110,0.0,0.0,93,0.00,,,0.00,Wunderground v.1.15,2013-08-11 10:51:00,
2013-08-11 07:05:00,55.7,53.7,30.09,ESE,110,0.0,0.0,93,0.00,,,0.00,Wunderground v.1.15,2013-08-11 11:05:00,
2013-08-11 07:15:00,55.9,53.9,30.09,ESE,110,0.0,1.0,93,0.00,,,0.00,Wunderground v.1.15,2013-08-11 11:15:00,
2013-08-11 07:25:00,56.3,54.3,30.09,ESE,110,0.0,0.0,93,0.00,,,0.00,Wunderground v.1.15,2013-08-11 11:25:00,
2013-08-11 07:30:00,56.5,54.5,30.10,ESE,110,0.0,0.0,93,0.00,,,0.00,Wunderground v.1.15,2013-08-11 11:30:00,
2013-08-11 07:40:00,57.3,55.3,30.10,ESE,110,0.0,0.0,93,0.00,,,0.00,Wunderground v.1.15,2013-08-11 11:40:00,
2013-08-11 07:45:00,57.8,55.8,30.10,ESE,110,0.0,0.0,93,0.00,,,0.00,Wunderground v.1.15,2013-08-11 11:45:00,
2013-08-11 07:50:00,58.4,56.4,30.09,ESE,110,0.0,0.0,93,0.00,,,0.00,Wunderground v.1.15,2013-08-11 11:50:00,
2013-08-11 08:00:00,60.0,58.3,30.09,ESE,110,0.0,0.0,94,0.00,,,0.00,Wunderground v.1.15,2013-08-11 12:00:00,
2013-08-11 08:10:00,61.1,59.4,30.09,ESE,110,0.0,0.0,94,0.00,,,0.00,Wunderground v.1.15,2013-08-11 12:10:00,
2013-08-11 08:15:00,61.1,59.4,30.09,ESE,110,0.0,0.0,94,0.00,,,0.00,Wunderground v.1.15,2013-08-11 12:15:00,
2013-08-11 08:20:00,61.2,59.5,30.09,ESE,110,0.0,1.0,94,0.00,,,0.00,Wunderground v.1.15,2013-08-11 12:20:00,
2013-08-11 08:25:00,61.5,59.8,30.09,ESE,110,0.0,1.0,94,0.00,,,0.00,Wunderground v.1.15,2013-08-11 12:25:00,
2013-08-11 08:35:00,62.3,60.6,30.08,ESE,110,0.0,0.0,94,0.00,,,0.00,Wunderground v.1.15,2013-08-11 12:35:00,
2013-08-11 08:40:00,62.7,60.9,30.09,ESE,110,0.0,0.0,94,0.00,,,0.00,Wunderground v.1.15,2013-08-11 12:40:00,
2013-08-11 08:50:00,63.9,62.1,30.08,ESE,110,0.0,0.0,94,0.00,,,0.00,Wunderground v.1.15,2013-08-11 12:50:00,
2013-08-11 09:00:00,65.1,63.3,30.08,ESE,119,0.0,0.0,94,0.00,,,0.00,Wunderground v.1.15,2013-08-11 13:00:00,
2013-08-11 09:10:00,66.3,64.5,30.09,SSE,155,0.0,2.0,94,0.00,,,0.00,Wunderground v.1.15,2013-08-11 13:10:00,
2013-08-11 09:20:00,67.7,63.4,30.08,SE,144,3.0,7.0,86,0.00,,,0.00,Wunderground v.1.15,2013-08-11 13:20:00,
2013-08-11 09:25:00,68.9,62.5,30.08,SSE,148,4.0,7.0,80,0.00,,,0.00,Wunderground v.1.15,2013-08-11 13:25:00,
2013-08-11 09:35:00,70.3,62.0,30.08,SSE,152,4.0,5.0,75,0.00,,,0.00,Wunderground v.1.15,2013-08-11 13:35:00,
2013-08-11 09:45:00,71.4,61.5,30.08,SE,128,2.0,4.0,71,0.00,,,0.00,Wunderground v.1.15,2013-08-11 13:45:00,
2013-08-11 09:55:00,71.8,61.5,30.08,SE,135,4.0,4.0,70,0.00,,,0.00,Wunderground v.1.15,2013-08-11 13:55:00,
2013-08-11 10:05:00,72.5,61.3,30.09,South,176,3.0,4.0,68,0.00,,,0.00,Wunderground v.1.15,2013-08-11 14:05:00,
2013-08-11 10:10:00,72.3,61.6,30.09,SE,133,3.0,5.0,69,0.00,,,0.00,Wunderground v.1.15,2013-08-11 14:10:00,
2013-08-11 10:15:00,72.7,61.5,30.09,South,184,3.0,5.0,68,0.00,,,0.00,Wunderground v.1.15,2013-08-11 14:15:00,
2013-08-11 10:25:00,73.6,61.5,30.09,SE,138,2.0,3.0,66,0.00,,,0.00,Wunderground v.1.15,2013-08-11 14:25:00,
2013-08-11 10:30:00,73.8,60.9,30.09,SSE,163,2.0,3.0,64,0.00,,,0.00,Wunderground v.1.15,2013-08-11 14:30:00,
2013-08-11 10:40:00,74.0,61.5,30.09,South,188,2.0,7.0,65,0.00,,,0.00,Wunderground v.1.15,2013-08-11 14:40:00,
2013-08-11 10:45:00,73.8,62.2,30.09,ESE,110,2.0,3.0,67,0.00,,,0.00,Wunderground v.1.15,2013-08-11 14:45:00,
2013-08-11 10:50:00,74.2,61.2,30.09,ESE,120,2.0,3.0,64,0.00,,,0.00,Wunderground v.1.15,2013-08-11 14:50:00,
2013-08-11 11:00:00,74.6,62.1,30.09,SSE,149,2.0,4.0,65,0.00,,,0.00,Wunderground v.1.15,2013-08-11 15:00:00,
2013-08-11 11:10:00,75.1,60.7,30.08,SSW,195,2.0,2.0,61,0.00,,,0.00,Wunderground v.1.15,2013-08-11 15:10:00,
2013-08-11 11:20:00,74.7,61.3,30.08,SW,224,2.0,2.0,63,0.00,,,0.00,Wunderground v.1.15,2013-08-11 15:20:00,
2013-08-11 11:30:00,75.2,61.7,30.08,SSE,148,1.0,2.0,63,0.00,,,0.00,Wunderground v.1.15,2013-08-11 15:30:00,
2013-08-11 11:40:00,75.9,61.9,30.08,East,93,2.0,2.0,62,0.00,,,0.00,Wunderground v.1.15,2013-08-11 15:40:00,
2013-08-11 11:50:00,76.7,63.2,30.08,East,97,1.0,2.0,63,0.00,,,0.00,Wunderground v.1.15,2013-08-11 15:50:00,
2013-08-11 11:55:00,77.3,64.2,30.08,East,101,1.0,2.0,64,0.00,,,0.00,Wunderground v.1.15,2013-08-11 15:55:00,
2013-08-11 12:00:00,76.9,63.3,30.08,ESE,114,3.0,5.0,63,0.00,,,0.00,Wunderground v.1.15,2013-08-11 16:00:00,
2013-08-11 12:10:00,76.6,64.0,30.07,ENE,69,3.0,3.0,65,0.00,,,0.00,Wunderground v.1.15,2013-08-11 16:10:00,
2013-08-11 12:15:00,76.9,63.8,30.07,East,98,2.0,5.0,64,0.00,,,0.00,Wunderground v.1.15,2013-08-11 16:15:00,
2013-08-11 12:20:00,76.2,62.7,30.07,ENE,78,3.0,3.0,63,0.00,,,0.00,Wunderground v.1.15,2013-08-11 16:20:00,
2013-08-11 12:30:00,76.1,62.6,30.07,ENE,71,2.0,5.0,63,0.00,,,0.00,Wunderground v.1.15,2013-08-11 16:30:00,
2013-08-11 12:40:00,76.9,63.3,30.07,SE,126,2.0,4.0,63,0.00,,,0.00,Wunderground v.1.15,2013-08-11 16:40:00,
2013-08-11 12:45:00,76.7,62.7,30.07,ENE,59,3.0,4.0,62,0.00,,,0.00,Wunderground v.1.15,2013-08-11 16:45:00,
2013-08-11 12:55:00,76.2,62.2,30.07,East,96,2.0,5.0,62,0.00,,,0.00,Wunderground v.1.15,2013-08-11 16:55:00,
2013-08-11 13:00:00,76.0,62.5,30.07,SE,131,3.0,3.0,63,0.00,,,0.00,Wunderground v.1.15,2013-08-11 17:00:00,
2013-08-11 13:15:00,76.4,63.3,30.06,ESE,106,3.0,3.0,64,0.00,,,0.00,Wunderground v.1.15,2013-08-11 17:15:00,
2013-08-11 13:25:00,76.6,64.4,30.06,ENE,71,4.0,6.0,66,0.00,,,0.00,Wunderground v.1.15,2013-08-11 17:25:00,
2013-08-11 13:35:00,76.1,63.9,30.06,SE,130,4.0,6.0,66,0.00,,,0.00,Wunderground v.1.15,2013-08-11 17:35:00,
2013-08-11 13:40:00,75.8,64.1,30.06,ESE,111,4.0,4.0,67,0.00,,,0.00,Wunderground v.1.15,2013-08-11 17:40:00,
2013-08-11 13:55:00,76.6,64.0,30.06,East,92,4.0,6.0,65,0.00,,,0.00,Wunderground v.1.15,2013-08-11 17:55:00,
2013-08-11 14:00:00,76.7,63.6,30.06,ENE,71,4.0,5.0,64,0.00,,,0.00,Wunderground v.1.15,2013-08-11 18:00:00,
2013-08-11 14:10:00,76.9,61.5,30.05,ESE,106,4.0,4.0,59,0.00,,,0.00,Wunderground v.1.15,2013-08-11 18:10:00,
2013-08-11 14:15:00,76.7,63.2,30.05,SSE,153,3.0,4.0,63,0.00,,,0.00,Wunderground v.1.15,2013-08-11 18:15:00,
2013-08-11 14:25:00,77.6,64.9,30.05,ENE,73,3.0,4.0,65,0.00,,,0.00,Wunderground v.1.15,2013-08-11 18:25:00,
2013-08-11 14:30:00,77.1,62.6,30.05,East,94,3.0,3.0,61,0.00,,,0.00,Wunderground v.1.15,2013-08-11 18:30:00,
2013-08-11 14:40:00,76.5,62.0,30.05,ESE,117,2.0,2.0,61,0.00,,,0.00,Wunderground v.1.15,2013-08-11 18:40:00,
2013-08-11 14:50:00,76.0,62.9,30.05,East,89,2.0,3.0,64,0.00,,,0.00,Wunderground v.1.15,2013-08-11 18:50:00,
2013-08-11 14:55:00,75.6,63.9,30.05,ENE,78,4.0,4.0,67,0.00,,,0.00,Wunderground v.1.15,2013-08-11 18:55:00,
2013-08-11 15:00:00,75.8,63.6,30.05,SE,138,3.0,3.0,66,0.00,,,0.00,Wunderground v.1.15,2013-08-11 19:00:00,
2013-08-11 15:10:00,77.3,63.7,30.05,East,86,4.0,4.0,63,0.00,,,0.00,Wunderground v.1.15,2013-08-11 19:10:00,
2013-08-11 15:15:00,77.8,65.5,30.04,ENE,72,4.0,4.0,66,0.00,,,0.00,Wunderground v.1.15,2013-08-11 19:15:00,
2013-08-11 15:20:00,78.0,63.9,30.04,ESE,107,4.0,5.0,62,0.00,,,0.00,Wunderground v.1.15,2013-08-11 19:20:00,
2013-08-11 15:30:00,77.1,63.5,30.04,East,100,4.0,4.0,63,0.00,,,0.00,Wunderground v.1.15,2013-08-11 19:30:00,
2013-08-11 15:35:00,77.1,62.1,30.04,SSE,158,3.0,5.0,60,0.00,,,0.00,Wunderground v.1.15,2013-08-11 19:35:00,
2013-08-11 15:40:00,77.3,65.5,30.04,SE,126,4.0,4.0,67,0.00,,,0.00,Wunderground v.1.15,2013-08-11 19:40:00,
2013-08-11 15:45:00,77.6,65.8,30.03,SE,141,4.0,4.0,67,0.00,,,0.00,Wunderground v.1.15,2013-08-11 19:45:00,
2013-08-11 15:50:00,77.6,64.9,30.03,ENE,78,3.0,4.0,65,0.00,,,0.00,Wunderground v.1.15,2013-08-11 19:50:00,
2013-08-11 16:00:00,78.1,65.4,30.03,East,82,4.0,4.0,65,0.00,,,0.00,Wunderground v.1.15,2013-08-11 20:00:00,
2013-08-11 16:10:00,78.0,64.8,30.03,SE,129,4.0,4.0,64,0.00,,,0.00,Wunderground v.1.15,2013-08-11 20:10:00,
2013-08-11 16:20:00,77.7,62.2,30.03,SSW,198,3.0,3.0,59,0.00,,,0.00,Wunderground v.1.15,2013-08-11 20:20:00,
2013-08-11 16:30:00,78.0,64.8,30.02,SE,129,1.0,1.0,64,0.00,,,0.00,Wunderground v.1.15,2013-08-11 20:30:00,
2013-08-11 16:35:00,78.5,65.3,30.03,SE,138,2.0,3.0,64,0.00,,,0.00,Wunderground v.1.15,2013-08-11 20:35:00,
2013-08-11 16:50:00,78.2,64.1,30.02,ESE,120,1.0,2.0,62,0.00,,,0.00,Wunderground v.1.15,2013-08-11 20:50:00,
2013-08-11 16:55:00,78.5,64.9,30.02,SW,225,2.0,2.0,63,0.00,,,0.00,Wunderground v.1.15,2013-08-11 20:55:00,
2013-08-11 17:00:00,79.0,63.0,30.01,WNW,303,2.0,6.0,58,0.00,,,0.00,Wunderground v.1.15,2013-08-11 21:00:00,
2013-08-11 17:10:00,79.6,63.0,30.02,West,273,4.0,4.0,57,0.00,,,0.00,Wunderground v.1.15,2013-08-11 21:10:00,
2013-08-11 17:20:00,78.9,62.9,30.02,WNW,283,5.0,5.0,58,0.00,,,0.00,Wunderground v.1.15,2013-08-11 21:20:00,
2013-08-11 17:25:00,79.2,64.1,30.01,WNW,284,5.0,5.0,60,0.00,,,0.00,Wunderground v.1.15,2013-08-11 21:25:00,
2013-08-11 17:35:00,79.3,61.7,30.01,WNW,283,5.0,5.0,55,0.00,,,0.00,Wunderground v.1.15,2013-08-11 21:35:00,
2013-08-11 17:45:00,79.2,63.1,30.01,West,259,4.0,4.0,58,0.00,,,0.00,Wunderground v.1.15,2013-08-11 21:45:00,
2013-08-11 17:50:00,79.4,62.3,30.01,WNW,292,3.0,3.0,56,0.00,,,0.00,Wunderground v.1.15,2013-08-11 21:50:00,
2013-08-11 18:00:00,79.3,62.7,30.01,NW,306,4.0,5.0,57,0.00,,,0.00,Wunderground v.1.15,2013-08-11 22:00:00,
2013-08-11 18:10:00,78.5,62.5,30.00,WNW,288,4.0,4.0,58,0.00,,,0.00,Wunderground v.1.15,2013-08-11 22:10:00,
2013-08-11 18:15:00,78.3,64.2,30.01,NNW,337,3.0,4.0,62,0.00,,,0.00,Wunderground v.1.15,2013-08-11 22:15:00,
2013-08-11 18:25:00,78.2,64.6,30.00,ENE,68,3.0,7.0,63,0.00,,,0.00,Wunderground v.1.15,2013-08-11 22:25:00,
2013-08-11 18:30:00,77.5,63.9,30.00,ENE,74,4.0,4.0,63,0.00,,,0.00,Wunderground v.1.15,2013-08-11 22:30:00,
2013-08-11 18:40:00,77.5,63.0,30.00,ENE,70,2.0,2.0,61,0.00,,,0.00,Wunderground v.1.15,2013-08-11 22:40:00,
2013-08-11 18:45:00,77.7,63.6,30.00,ENE,76,2.0,3.0,62,0.00,,,0.00,Wunderground v.1.15,2013-08-11 22:45:00,
2013-08-11 18:55:00,77.6,64.9,30.00,East,96,2.0,3.0,65,0.00,,,0.00,Wunderground v.1.15,2013-08-11 22:55:00,
2013-08-11 19:00:00,78.0,65.7,30.00,East,96,1.0,1.0,66,0.00,,,0.00,Wunderground v.1.15,2013-08-11 23:00:00,
2013-08-11 19:10:00,78.9,65.2,30.00,ENE,57,0.0,1.0,63,0.00,,,0.00,Wunderground v.1.15,2013-08-11 23:10:00,
2013-08-11 19:15:00,79.1,65.0,30.00,WNW,298,1.0,3.0,62,0.00,,,0.00,Wunderground v.1.15,2013-08-11 23:15:00,
2013-08-11 19:25:00,78.0,63.5,30.00,NW,304,3.0,3.0,61,0.00,,,0.00,Wunderground v.1.15,2013-08-11 23:25:00,
2013-08-11 19:35:00,76.8,63.7,29.99,NW,313,3.0,3.0,64,0.00,,,0.00,Wunderground v.1.15,2013-08-11 23:35:00,
2013-08-11 19:40:00,76.2,63.6,30.00,NW,319,3.0,3.0,65,0.00,,,0.00,Wunderground v.1.15,2013-08-11 23:40:00,
2013-08-11 19:50:00,75.1,63.4,29.99,NW,319,2.0,2.0,67,0.00,,,0.00,Wunderground v.1.15,2013-08-11 23:50:00,
2013-08-11 20:01:00,74.3,64.3,30.00,NW,319,2.0,2.0,71,0.00,,,0.00,Wunderground v.1.15,2013-08-12 00:01:00,
2013-08-11 20:10:00,73.0,64.2,30.00,NW,319,2.0,2.0,74,0.00,,,0.00,Wunderground v.1.15,2013-08-12 00:10:00,
2013-08-11 20:15:00,72.8,64.4,30.00,NW,319,1.0,2.0,75,0.00,,,0.00,Wunderground v.1.15,2013-08-12 00:15:00,
2013-08-11 20:20:00,72.6,63.4,30.00,NW,319,0.0,0.0,73,0.00,,,0.00,Wunderground v.1.15,2013-08-12 00:20:00,
2013-08-11 20:30:00,72.5,62.2,30.00,NW,319,0.0,0.0,70,0.00,,,0.00,Wunderground v.1.15,2013-08-12 00:30:00,
2013-08-11 20:40:00,72.3,63.5,30.00,NW,319,0.0,0.0,74,0.00,,,0.00,Wunderground v.1.15,2013-08-12 00:40:00,
2013-08-11 20:50:00,71.3,63.7,30.00,NW,319,0.0,0.0,77,0.00,,,0.00,Wunderground v.1.15,2013-08-12 00:50:00,
2013-08-11 21:00:00,70.2,63.7,30.01,NW,319,1.0,1.0,80,0.00,,,0.00,Wunderground v.1.15,2013-08-12 01:00:00,
2013-08-11 21:10:00,69.3,63.2,30.01,NW,319,0.0,0.0,81,0.00,,,0.00,Wunderground v.1.15,2013-08-12 01:10:00,
2013-08-11 21:20:00,68.7,63.0,30.01,NW,319,0.0,0.0,82,0.00,,,0.00,Wunderground v.1.15,2013-08-12 01:20:00,
2013-08-11 21:30:00,68.5,63.1,30.01,NW,319,0.0,0.0,83,0.00,,,0.00,Wunderground v.1.15,2013-08-12 01:30:00,
2013-08-11 21:40:00,68.1,62.4,30.01,NW,319,0.0,0.0,82,0.00,,,0.00,Wunderground v.1.15,2013-08-12 01:40:00,
2013-08-11 21:50:00,67.9,62.5,30.02,NW,319,0.0,0.0,83,0.00,,,0.00,Wunderground v.1.15,2013-08-12 01:50:00,
2013-08-11 21:55:00,67.6,62.6,30.02,NW,319,0.0,0.0,84,0.00,,,0.00,Wunderground v.1.15,2013-08-12 01:55:00,
2013-08-11 22:00:00,67.4,62.4,30.02,NW,319,0.0,0.0,84,0.00,,,0.00,Wunderground v.1.15,2013-08-12 02:00:00,
2013-08-11 22:05:00,67.2,62.5,30.02,NW,319,0.0,0.0,85,0.00,,,0.00,Wunderground v.1.15,2013-08-12 02:05:00,
2013-08-11 22:15:00,67.0,62.7,30.03,NW,319,0.0,0.0,86,0.00,,,0.00,Wunderground v.1.15,2013-08-12 02:15:00,
2013-08-11 22:25:00,67.1,62.8,30.02,NW,319,0.0,0.0,86,0.00,,,0.00,Wunderground v.1.15,2013-08-12 02:25:00,
2013-08-11 22:35:00,67.4,63.1,30.02,NW,319,0.0,0.0,86,0.00,,,0.00,Wunderground v.1.15,2013-08-12 02:35:00,
2013-08-11 22:40:00,67.5,63.2,30.03,NW,319,0.0,0.0,86,0.00,,,0.00,Wunderground v.1.15,2013-08-12 02:40:00,
2013-08-11 22:50:00,67.5,63.2,30.02,NW,319,0.0,0.0,86,0.00,,,0.00,Wunderground v.1.15,2013-08-12 02:50:00,
2013-08-11 23:00:00,67.2,62.9,30.02,NW,319,0.0,0.0,86,0.00,,,0.00,Wunderground v.1.15,2013-08-12 03:00:00,
2013-08-11 23:10:00,66.7,62.4,30.02,NW,319,0.0,0.0,86,0.00,,,0.00,Wunderground v.1.15,2013-08-12 03:10:00,
2013-08-11 23:15:00,66.5,62.2,30.02,NW,319,0.0,0.0,86,0.00,,,0.00,Wunderground v.1.15,2013-08-12 03:15:00,
2013-08-11 23:25:00,65.9,61.9,30.02,NW,319,0.0,0.0,87,0.00,,,0.00,Wunderground v.1.15,2013-08-12 03:25:00,
2013-08-11 23:30:00,65.5,61.5,30.02,NW,319,0.0,0.0,87,0.00,,,0.00,Wunderground v.1.15,2013-08-12 03:30:00,
2013-08-11 23:40:00,64.8,60.8,30.02,NW,319,0.0,0.0,87,0.00,,,0.00,Wunderground v.1.15,2013-08-12 03:40:00,
2013-08-11 23:50:00,64.5,60.5,30.02,NW,319,0.0,0.0,87,0.00,,,0.00,Wunderground v.1.15,2013-08-12 03:50:00,